Wind_Speed
2 2 1 0 1 2 2 1 2 3 4 4 4 4 5 5 5 5 5 5 4 4 3 3 3 3 2 2 2 2 2 2 2 2 2 1 1 1 1 1 1 1 1
2 2 1 0 1 1 1 1 1 2 3 3 3 3 4 4 4 4 5 5 4 3 3 3 3 2 2 2 1 1 1 2 2 2 2 2 2 2 3 2 2 2 1
3 2 2 2 1 1 1 1 1 1 2 2 3 3 3 4 4 4 4 4 4 4 3 3 2 2 2 2 2 2 2 2 2 3 4 4 4 4 4 3 3 3 3
4 3 3 2 2 2 2 1 1 2 2 2 2 2 2 3 3 3 4 4 4 4 3 3 2 1 1 2 2 2 3 3 3 4 4 5 5 5 5 5 5 4 4
4 4 3 3 2 1 2 2 2 1 2 2 2 1 1 2 2 3 3 3 3 4 4 3 2 2 2 2 3 3 3 3 4 5 5 5 6 6 6 6 5 5 5
5 4 4 3 3 2 1 2 2 2 2 2 1 1 0 1 2 2 3 3 3 3 3 3 3 3 3 3 3 3 4 4 5 5 5 6 7 7 7 6 6 6 5
6 5 5 4 4 3 2 2 3 3 2 2 1 1 0 1 2 2 2 3 3 3 3 3 3 4 4 4 4 5 5 6 6 6 6 7 7 7 8 7 7 7 7
6 6 5 5 4 4 4 4 3 3 3 2 2 2 1 1 1 2 2 3 3 3 4 4 4 4 5 5 6 6 7 7 7 7 7 7 7 7 8 8 8 8 8
7 6 6 5 5 5 5 4 4 4 3 3 3 3 2 2 2 3 3 3 3 3 4 4 4 5 6 6 6 7 7 7 7 7 8 8 8 8 8 8 8 9 8
8 7 6 6 6 5 5 5 4 4 5 4 3 3 3 2 3 3 3 3 4 4 5 5 5 6 6 7 7 7 7 7 7 7 8 8 8 8 8 9 8 9 8
9 8 8 8 7 7 6 6 5 6 5 5 4 4 4 4 4 4 4 4 5 5 6 6 6 7 7 7 7 7 7 7 7 7 8 8 8 8 8 9 9 9 9
10 10 10 9 8 7 7 7 6 7 6 4 4 5 5 5 5 5 5 5 5 6 7 7 7 7 8 8 8 8 8 8 7 8 8 7 8 8 8 9 9 10 10
12 12 11 10 9 8 7 7 7 7 7 6 5 5 6 6 6 5 5 5 6 6 7 7 7 7 8 8 9 9 8 8 8 8 9 9 9 9 9 10 10 10 11
13 12 12 11 10 10 9 9 9 8 8 7 7 7 7 7 6 5 6 5 5 6 7 8 7 8 8 8 8 8 9 9 9 9 9 10 10 10 10 10 11 11 11
13 13 13 12 11 10 10 10 9 9 8 7 7 7 7 7 7 6 6 6 6 7 7 8 8 9 8 8 8 9 9 9 9 10 10 11 11 11 11 11 11 11 11
14 14 13 13 12 12 11 11 10 10 9 8 8 8 8 8 7 7 7 7 7 7 8 9 9 9 9 9 9 9 9 9 10 10 10 11 11 11 11 11 12 11 10
15 15 14 13 12 12 11 10 10 11 11 10 10 9 9 8 8 8 7 7 8 8 9 9 9 8 9 9 10 10 10 10 10 10 10 10 10 11 11 11 12 11 11
15 15 15 14 12 12 11 11 11 11 11 11 10 9 9 8 8 8 7 7 8 9 9 9 9 9 9 10 10 10 10 10 10 10 10 10 10 10 10 11 11 11 11
16 15 15 14 13 12 12 11 11 11 10 10 10 9 9 8 8 8 8 9 9 9 9 8 9 9 10 10 10 10 10 10 11 11 11 10 11 11 11 11 11 11 11
15 14 14 14 13 13 12 12 11 11 10 9 8 8 8 8 8 9 9 9 9 9 9 9 9 9 10 10 10 10 10 10 11 11 11 11 11 11 11 11 11 11 10
15 14 13 14 13 12 12 12 11 11 11 10 9 9 9 9 8 8 9 9 9 9 9 9 9 9 9 10 10 10 10 11 11 12 11 11 11 11 12 12 11 10 10
15 14 14 14 14 13 13 12 11 11 10 11 11 10 9 9 9 8 9 9 9 9 9 9 9 9 9 10 10 10 11 11 11 11 11 11 12 11 11 11 10 10 11
15 15 14 14 14 14 13 12 12 12 11 11 11 11 10 10 10 10 9 9 9 9 9 9 9 9 9 10 10 11 10 10 10 10 10 11 11 11 11 11 11 11 12
13 14 14 14 15 15 14 14 13 13 13 13 12 12 12 12 11 11 10 10 10 9 9 9 9 9 9 10 10 10 10 10 10 10 10 10 10 10 10 11 11 12 12
14 14 14 14 14 14 14 14 14 14 13 13 12 12 12 12 11 12 11 11 11 10 10 10 10 10 10 10 10 10 10 10 11 10 11 11 10 10 11 11 11 12 12
15 14 14 14 14 14 14 14 14 14 14 13 13 12 12 12 12 12 11 11 11 11 10 10 9 10 10 10 10 10 10 10 10 11 11 11 11 10 11 11 11 12 12
Wind_Direction
183 182 178 139 110 99 104 117 133 114 116 116 106 103 98 94 93 89 85 82 78 74 66 71 72 73 66 67 70 65 51 40 21 17 19 2 354 339 341 332 313 323 41
204 211 214 219 178 133 117 150 137 111 113 117 118 110 97 97 94 88 78 76 73 67 62 63 63 63 54 48 38 23 3 358 353 336 332 309 301 302 296 289 293 291 311
219 217 229 237 239 210 196 190 187 128 113 111 115 105 93 86 88 82 67 60 64 63 56 51 54 59 50 29 13 351 328 328 322 311 302 293 290 289 289 284 282 281 285
218 227 236 245 241 231 208 191 192 155 140 128 120 108 80 74 78 68 54 48 53 47 43 37 46 46 4 334 329 326 318 311 309 304 296 290 284 280 280 279 277 276 276
226 228 229 247 232 229 216 204 194 171 152 152 141 117 62 59 60 54 43 37 38 35 31 22 16 358 334 316 312 310 306 302 298 292 286 287 281 279 278 274 274 276 271
231 227 234 246 233 237 232 221 216 203 180 187 183 154 34 46 44 42 31 25 21 23 22 15 14 357 337 326 315 308 298 295 293 292 288 285 281 279 276 273 271 274 272
237 238 245 251 247 235 241 242 228 221 217 204 204 208 312 354 15 17 13 3 359 0 359 356 354 348 334 319 309 304 300 297 295 290 286 285 283 276 274 270 270 272 272
245 244 248 255 249 241 243 245 245 234 225 223 212 224 255 296 334 333 333 334 339 340 340 340 342 338 330 320 312 306 300 296 294 291 289 285 284 278 274 267 268 271 272
250 244 252 262 259 251 246 245 243 240 234 240 236 235 251 275 300 312 324 332 333 330 329 332 331 332 329 323 315 310 304 300 299 294 289 285 285 281 276 272 270 270 268
247 243 248 256 260 257 248 244 243 246 244 243 242 244 256 270 290 303 315 330 330 326 323 321 323 325 325 322 318 315 311 307 301 295 290 288 286 284 279 272 269 268 267
248 246 247 253 254 256 253 251 248 250 258 247 249 250 258 273 286 294 305 318 323 327 327 323 321 321 322 321 319 315 313 310 303 297 292 290 287 285 280 275 271 268 266
250 248 246 254 257 256 255 256 252 257 258 253 256 252 254 266 276 285 297 308 317 325 328 323 318 320 320 319 318 315 312 310 302 297 292 290 287 283 280 278 275 272 268
249 248 248 253 253 254 258 261 257 257 257 260 269 262 257 264 271 280 296 309 316 321 323 323 323 320 319 319 316 314 310 304 298 296 290 287 288 286 282 277 277 274 271
249 249 250 252 254 258 259 260 258 258 259 264 269 271 268 263 266 280 292 302 307 311 318 322 323 319 315 315 316 315 309 305 301 298 295 291 288 288 286 280 279 277 274
248 250 252 249 250 254 258 259 255 258 261 268 273 271 272 268 266 280 282 291 298 304 310 315 317 317 316 314 314 314 310 307 303 299 296 292 289 288 289 286 283 282 277
252 251 251 251 250 252 258 259 258 259 259 266 270 270 273 273 273 278 282 284 292 301 305 312 315 317 316 315 313 312 307 304 302 300 297 295 292 288 288 289 286 285 281
252 251 252 253 253 253 256 260 261 259 260 266 269 268 270 272 273 275 281 284 292 300 303 306 308 311 309 313 314 311 309 305 304 302 301 301 297 293 292 292 291 288 281
253 252 253 254 251 251 255 259 264 261 260 264 266 265 265 266 270 272 281 288 294 297 299 299 301 304 306 310 313 314 312 311 310 305 304 303 301 299 297 296 294 290 286
254 251 253 255 253 249 253 259 261 258 256 259 262 265 268 269 272 276 283 292 293 292 294 295 297 301 303 307 311 314 314 313 312 311 308 304 300 299 299 297 294 292 287
252 249 251 254 253 251 253 256 254 252 253 257 258 264 269 271 274 276 280 288 293 291 290 294 297 299 302 306 311 314 315 315 313 311 309 305 301 301 298 295 294 290 285
250 247 248 251 252 250 252 250 250 251 252 255 259 263 265 268 273 276 279 286 290 291 291 294 294 297 302 305 309 312 316 315 314 312 311 308 305 302 299 297 292 290 289
255 252 249 250 251 250 249 248 249 251 256 257 259 259 259 263 269 274 280 283 283 287 292 293 292 296 301 305 308 313 317 316 314 311 312 311 308 305 302 301 298 295 295
257 256 253 250 248 249 249 250 252 253 254 256 257 259 258 260 266 271 278 278 278 285 289 289 291 294 299 304 307 310 315 316 316 316 314 314 313 309 306 303 301 301 297
258 261 261 257 251 253 250 252 253 253 255 255 255 256 258 262 265 269 271 271 275 280 284 288 289 293 299 304 307 309 313 317 318 317 317 316 316 315 310 306 302 302 298
258 261 260 258 256 253 253 253 253 253 253 255 255 258 262 263 263 266 267 267 270 274 279 283 287 289 295 299 303 306 310 315 319 320 322 320 318 316 315 313 308 306 301
258 258 255 257 258 256 256 253 253 253 253 254 256 261 264 263 262 263 263 267 267 270 276 280 284 288 292 297 300 304 308 313 317 319 322 322 319 317 318 318 317 315 310
Height
5892 5892 5892 5892 5892 5892 5892 5892 5892 5892 5891 5891 5891 5892 5892 5892 5892 5892 5891 5891 5891 5891 5891 5891 5892 5891 5891 5891 5891 5892 5892 5892 5892 5893 5893 5893 5893 5893 5893 5894 5894 5893 5894
5892 5892 5892 5892 5892 5892 5892 5892 5892 5892 5892 5892 5892 5892 5892 5892 5892 5892 5892 5892 5892 5892 5892 5892 5892 5892 5892 5892 5892 5892 5892 5892 5892 5893 5893 5893 5893 5893 5893 5893 5893 5894 5894
5892 5892 5892 5892 5892 5892 5892 5892 5892 5892 5892 5892 5893 5893 5893 5893 5893 5893 5893 5893 5893 5892 5892 5892 5892 5892 5892 5892 5892 5892 5892 5892 5892 5892 5892 5893 5893 5893 5893 5893 5893 5894 5894
5892 5892 5892 5893 5892 5892 5892 5892 5892 5892 5893 5893 5893 5893 5893 5893 5894 5894 5894 5893 5893 5893 5893 5893 5892 5892 5892 5892 5892 5892 5892 5892 5892 5892 5892 5892 5892 5892 5893 5893 5893 5893 5893
5892 5892 5892 5893 5893 5893 5893 5893 5893 5893 5893 5893 5894 5894 5894 5894 5894 5894 5894 5894 5893 5893 5893 5893 5892 5892 5892 5892 5892 5892 5892 5891 5891 5891 5892 5892 5892 5892 5892 5892 5892 5892 5893
5891 5892 5892 5892 5893 5893 5893 5893 5894 5893 5893 5894 5894 5894 5894 5894 5894 5894 5894 5894 5894 5893 5893 5893 5892 5892 5891 5891 5891 5891 5891 5891 5891 5891 5891 5891 5891 5891 5891 5891 5891 5892 5892
5891 5891 5892 5892 5892 5893 5893 5893 5894 5894 5894 5894 5894 5894 5894 5894 5895 5895 5894 5894 5894 5893 5893 5893 5892 5891 5891 5891 5890 5890 5890 5890 5890 5890 5890 5890 5890 5889 5890 5890 5890 5890 5891
5891 5891 5891 5891 5892 5892 5893 5893 5893 5894 5894 5894 5894 5894 5894 5894 5895 5895 5894 5894 5894 5893 5893 5892 5892 5891 5891 5890 5890 5889 5889 5889 5888 5889 5888 5888 5888 5888 5888 5888 5889 5889 5889
5890 5891 5891 5891 5891 5892 5892 5892 5893 5893 5893 5893 5894 5894 5894 5894 5894 5894 5894 5894 5893 5893 5893 5892 5891 5891 5890 5890 5889 5888 5888 5887 5887 5887 5887 5887 5887 5886 5887 5887 5887 5888 5888
5889 5890 5890 5890 5891 5891 5891 5892 5892 5892 5893 5893 5893 5894 5894 5894 5894 5894 5894 5893 5893 5892 5892 5891 5891 5890 5890 5889 5888 5887 5887 5886 5886 5886 5885 5885 5885 5885 5885 5885 5886 5886 5887
5888 5889 5890 5890 5890 5890 5890 5891 5891 5892 5892 5892 5893 5893 5894 5894 5894 5893 5893 5893 5892 5892 5891 5891 5890 5889 5889 5888 5887 5886 5886 5885 5885 5884 5884 5884 5883 5883 5883 5884 5884 5884 5885
5887 5888 5888 5889 5889 5889 5889 5890 5891 5891 5891 5891 5892 5892 5893 5893 5893 5893 5893 5892 5892 5891 5891 5890 5889 5888 5888 5887 5886 5885 5885 5884 5884 5883 5882 5882 5882 5882 5882 5882 5882 5883 5883
5885 5886 5886 5887 5888 5888 5888 5889 5889 5890 5890 5890 5891 5891 5892 5892 5892 5892 5892 5891 5891 5890 5890 5889 5888 5888 5887 5886 5885 5884 5884 5883 5882 5882 5881 5881 5880 5880 5880 5880 5880 5881 5881
5883 5884 5885 5886 5886 5887 5887 5887 5888 5888 5889 5889 5890 5890 5890 5890 5890 5890 5890 5890 5890 5889 5889 5888 5887 5887 5886 5885 5884 5883 5882 5881 5881 5880 5879 5879 5879 5878 5878 5878 5878 5879 5879
5881 5882 5883 5883 5884 5885 5885 5886 5886 5887 5887 5888 5888 5889 5889 5889 5889 5889 5889 5889 5889 5888 5888 5887 5886 5885 5884 5884 5883 5882 5881 5880 5879 5879 5878 5877 5877 5876 5876 5876 5876 5876 5876
5879 5880 5880 5881 5882 5883 5883 5884 5884 5885 5886 5886 5887 5887 5887 5887 5888 5888 5888 5888 5887 5887 5886 5886 5885 5884 5883 5882 5881 5881 5880 5879 5878 5877 5876 5875 5875 5875 5874 5874 5874 5874 5874
5876 5877 5878 5879 5880 5880 5881 5882 5883 5883 5884 5885 5885 5886 5886 5886 5886 5886 5886 5886 5886 5885 5885 5884 5883 5883 5882 5881 5880 5879 5878 5877 5876 5875 5874 5874 5873 5873 5872 5872 5871 5871 5871
5873 5875 5876 5877 5877 5878 5879 5880 5881 5882 5882 5883 5883 5884 5884 5884 5884 5885 5885 5884 5884 5884 5883 5882 5882 5881 5880 5879 5879 5878 5877 5875 5874 5873 5872 5872 5871 5871 5870 5870 5869 5869 5869
5870 5872 5873 5874 5875 5876 5877 5878 5879 5879 5880 5881 5882 5882 5882 5882 5883 5883 5883 5883 5882 5882 5881 5881 5880 5880 5879 5878 5877 5876 5875 5874 5873 5872 5871 5870 5869 5869 5868 5867 5867 5867 5867
5867 5869 5870 5871 5873 5874 5875 5875 5876 5877 5878 5879 5879 5880 5880 5881 5881 5881 5881 5881 5881 5880 5880 5879 5879 5878 5878 5877 5876 5875 5873 5872 5871 5870 5869 5868 5867 5867 5866 5865 5865 5864 5864
5864 5866 5867 5869 5870 5871 5872 5873 5874 5875 5876 5877 5877 5878 5878 5879 5879 5879 5879 5879 5879 5879 5878 5878 5877 5877 5876 5875 5874 5873 5872 5871 5869 5868 5867 5866 5865 5864 5864 5863 5862 5862 5862
5862 5863 5864 5866 5867 5868 5870 5871 5872 5873 5874 5874 5875 5875 5876 5876 5877 5877 5877 5877 5877 5877 5877 5876 5876 5875 5874 5874 5873 5872 5871 5870 5868 5866 5865 5864 5863 5862 5861 5861 5860 5860 5860
5858 5860 5861 5863 5864 5866 5867 5868 5869 5870 5871 5872 5873 5873 5874 5874 5874 5875 5875 5875 5876 5875 5875 5875 5874 5873 5873 5872 5871 5870 5869 5868 5867 5865 5864 5862 5861 5860 5860 5859 5858 5858 5858
5856 5857 5858 5860 5861 5862 5864 5865 5866 5867 5868 5869 5870 5870 5871 5871 5872 5872 5873 5873 5873 5873 5873 5873 5872 5872 5871 5870 5869 5868 5867 5866 5865 5864 5863 5861 5860 5859 5858 5857 5856 5855 5854
5853 5854 5855 5857 5858 5859 5861 5862 5863 5864 5865 5866 5867 5868 5868 5869 5869 5870 5870 5870 5871 5871 5870 5870 5870 5869 5869 5868 5867 5866 5865 5864 5863 5862 5861 5860 5858 5857 5856 5854 5853 5852 5851
5850 5851 5852 5854 5855 5856 5858 5859 5860 5861 5862 5863 5864 5865 5866 5866 5866 5867 5867 5868 5868 5868 5868 5868 5868 5867 5867 5866 5865 5864 5864 5863 5862 5861 5859 5858 5857 5855 5854 5852 5851 5850 5848